Location: Azul
(36.7830°S, 59.8500°W)
Time: 02:37:17
(UTC-03:00)

CAS-4A - Pass Details

Date: 24 October 2021
Orbit: 529 x 539 km, 43.0° (Epoch: 04 December)

Event Time Altitude Azimuth Distance (km) Brightness Sun altitude
Exits shadow 05:03:25 10° 251° (WSW) 1,803 ? -12.0°
Reaches altitude 10° 05:03:27 10° 251° (WSW) 1,792 ? -12.0°
Maximum altitude 05:07:13 34° 185° (S) 898 ? -11.4°
Drops below altitude 10° 05:11:00 10° 118° (ESE) 1,795 ? -10.7°
Sets 05:13:24 0° 109° (ESE) 2,687 ? -10.2°
